[[{"header":{"parameterUnit":"m.s-1","parameterCategory":2,"la1":30.2991,"la2":30.254,"lo1":-89.0895,"lo2":-89.0444,"dy":0.0017,"dx":0.0017,"nx":28,"ny":28,"refTime":"2024-10-12T21:00:00:Z","depth":"0","parameterNumber":2,"parameterNumberName":"U-component_of_CURRENTS"},"data":[0,0,0,0,0,0,0,0,0,0,0,0,0,0,0,0,0,0,0,0,0,0,0,0,0,0,0,0,0,0,0,0,0,0,0,0,0,0,0,0,0,0,0,0,0,0,0,0,0,0,0,0,0,0,0,0,0,0,0.3354,0.3354,0,0.3428,0.3429,0.343,0.3464,0.3464,0.3464,0.3464,0.3509,0.351,0.3512,0,0,0,0,0,0,0,0,0,0,0,0,0,0.327,0.3271,0.3353,0.3354,0.3355,0.3428,0.3429,0.343,0.3464,0.3464,0.3464,0.3464,0.3509,0.351,0.3512,0,0,0,0,0,0,0,0,0,0,0,0,0,0.3321,0.3272,0.3353,0.3381,0.3385,0.3428,0.3429,0.3431,0.3464,0.3464,0.3464,0.3464,0.3508,0.351,0.3512,0.3525,0,0,0.3518,0.3519,0,0,0,0,0,0,0,0,0.3318,0.3324,0.3376,0.3379,0.3383,0.3437,0.3417,0.3461,0.3464,0.3434,0.3464,0.3464,0.3483,0.3487,0.3501,0.3527,0.3529,0.3518,0.3519,0.352,0.352,0,0,0,0,0,0,0,0.3315,0.3321,0.3383,0.3377,0.3382,0.34,0.3407,0.3425,0.3457,0.3436,0.3439,0.3448,0.3484,0.3499,0.3502,0.353,0.3518,0.3519,0.3521,0.3521,0.3588,0.3588,0,0,0,0,0,0,0.3305,0.3318,0.338,0.3385,0.335,0.3402,0.341,0.342,0.3457,0.3463,0.3448,0.3449,0.3496,0.35,0.3504,0.3541,0.352,0.3522,0.3523,0.3587,0.3588,0.3588,0,0,0,0,0,0,0.3303,0.331,0.3377,0.3353,0.3363,0.3403,0.3414,0.3421,0.3435,0.3467,0.3472,0.3454,0.3496,0.3501,0.3529,0.3542,0.3522,0.3524,0.3586,0.3587,0.3588,0.3603,0,0,0,0,0,0,0.33,0.3308,0.331,0.3353,0.3364,0.3397,0.3415,0.3423,0.3441,0.3443,0.3474,0.3478,0.3496,0.3526,0.3531,0.3544,0.3526,0.3585,0.3587,0.3588,0.3601,0.3604,0.3606,0,0,0,0,0,0.3297,0.3283,0.3309,0.3317,0.3366,0.3397,0.3404,0.3432,0.3441,0.3445,0.3476,0.3477,0.3537,0.3529,0.3534,0.3548,0.3585,0.3586,0.3588,0.36,0.3603,0.3606,0,0,0,0,0,0,0.3226,0.3288,0.3316,0.3318,0.3358,0.3402,0.34,0.3429,0.3458,0.3456,0.3488,0.3495,0.3527,0.3532,0.3523,0.357,0.356,0.3562,0.3568,0.3571,0.3573,0.3549,0.3527,0,0,0,0,0,0.3219,0.3234,0.3295,0.3292,0.3311,0.336,0.3375,0.34,0.3433,0.3445,0.3476,0.3504,0.3538,0.3549,0.3575,0.3597,0.3615,0.3609,0.3611,0.3613,0.3598,0.3647,0.3653,0.3593,0.3593,0.3593,0,0,0.3187,0.3223,0.3229,0.3281,0.3309,0.334,0.3367,0.3384,0.3412,0.3444,0.3479,0.3514,0.3547,0.3581,0.3594,0.3586,0.3644,0.3615,0.3617,0.3599,0.3649,0.3655,0.366,0.3594,0.3594,0.3594,0,0,0.3138,0.3167,0.3176,0.3217,0.3269,0.3305,0.3312,0.3369,0.3392,0.3433,0.3473,0.3514,0.3553,0.3592,0.3613,0.364,0.3659,0.3648,0.3638,0.3688,0.3693,0.3698,0.3745,0.3753,0.3645,0.3645,0.3645,0,0.3104,0.3131,0.3178,0.3207,0.3236,0.329,0.3313,0.3347,0.3409,0.3435,0.3436,0.353,0.3557,0.3618,0.3629,0.3645,0.3674,0.3627,0.3691,0.3696,0.37,0.3747,0.3757,0.3646,0.3646,0.3646,0.3646,0,0.3087,0.311,0.3109,0.3178,0.3212,0.3231,0.33,0.3335,0.337,0.3413,0.3474,0.3524,0.3579,0.3601,0.362,0.3676,0.3688,0.3694,0.3683,0.3707,0.3755,0.3765,0.3647,0.3647,0.3647,0.3646,0,0,0.3009,0.3087,0.3089,0.3123,0.3204,0.3227,0.3276,0.3342,0.3375,0.343,0.3479,0.3542,0.3574,0.3599,0.3644,0.3679,0.3747,0.3694,0.3696,0.3738,0.3861,0.3908,0.3923,0.377,0.3771,0.3772,0.3888,0,0.2987,0.3029,0.3078,0.3114,0.3146,0.322,0.3262,0.3327,0.338,0.3439,0.35,0.3554,0.3573,0.3606,0.3649,0.3728,0.377,0.3715,0.3831,0.3834,0.3871,0.3934,0.3756,0.3847,0.3897,0.3898,0.39,0,0.2967,0.3002,0.3036,0.3107,0.3126,0.3154,0.324,0.3285,0.3381,0.3421,0.349,0.3544,0.3625,0.3625,0.3758,0.3725,0.3785,0.3833,0.384,0.3878,0.3898,0.3828,0.3863,0.3703,0.3914,0.3913,0.3912,0,0.2911,0.2971,0.2995,0.3024,0.3112,0.3137,0.3183,0.3275,0.3318,0.3413,0.3454,0.3554,0.3611,0.3698,0.3814,0.3788,0.3955,0.3936,0.4035,0.4039,0.3904,0.3895,0.3791,0.4016,0.4016,0.4015,0.4015,0,0.2885,0.2899,0.2967,0.2986,0.3007,0.309,0.3127,0.3188,0.3282,0.3339,0.3434,0.3509,0.3628,0.3747,0.3831,0.3983,0.3979,0.4045,0.4078,0.3908,0.3898,0.3767,0.3724,0.402,0.4019,0.4018,0.4017,0,0.2816,0.2871,0.2891,0.2962,0.2982,0.2993,0.3079,0.3115,0.321,0.3293,0.3324,0.3485,0.3654,0.379,0.3954,0.4014,0.4037,0.4195,0.3995,0.4004,0.3937,0.3903,0.3798,0.37,0.4309,0.4311,0.4313,0,0.2774,0.2783,0.2839,0.2847,0.2872,0.2912,0.2947,0.3058,0.3112,0.3291,0.3331,0.3519,0.3654,0.3926,0.4079,0.4254,0.4102,0.4171,0.4089,0.392,0.3906,0.3771,0.3684,0.3915,0.3914,0.3912,0.3911,0,0.2682,0.2705,0.2729,0.2735,0.2762,0.2804,0.287,0.2901,0.3052,0.3139,0.3287,0.3408,0.3715,0.3826,0.4076,0.4171,0.3949,0.4152,0.4002,0.362,0.3436,0.3361,0.3858,0.3898,0.39,0.3901,0.3901,0.3902,0.2594,0.2569,0.2593,0.2601,0.2638,0.267,0.2667,0.2776,0.2851,0.2957,0.3159,0.3264,0.3489,0.3837,0.3928,0.3924,0.3951,0.3784,0.377,0.3659,0.3506,0.4004,0.4077,0.4079,0.4081,0.4083,0.4084,0,0.2445,0.2447,0.2453,0.2461,0.2462,0.2531,0.2594,0.2583,0.2637,0.2789,0.291,0.304,0.3194,0.3384,0.356,0.3491,0.3354,0.3392,0.3078,0.3026,0.347,0.3391,0.3286,0.3286,0.3286,0.3286,0.3286,0.3287,0.2361,0.2311,0.2324,0.2282,0.23,0.2256,0.2268,0.2291,0.236,0.241,0.2465,0.2599,0.2892,0.3117,0.3115,0.3068,0.2808,0.2738,0.2756,0.2974,0.3004,0.3033,0.2941,0.2743,0.2743,0.2126,0.2121,0.2118]},{"header":{"parameterUnit":"m.s-1","parameterCategory":2,"la1":30.2991,"la2":30.254,"lo1":-89.0895,"lo2":-89.0444,"dy":0.0017,"dx":0.0017,"nx":28,"ny":28,"refTime":"2024-10-12T21:00:00:Z","depth":"0","parameterNumber":3,"parameterNumberName":"V-component_of_CURRENTS"},"data":[0,0,0,0,0,0,0,0,0,0,0,0,0,0,0,0,0,0,0,0,0,0,0,0,0,0,0,0,0,0,0,0,0,0,0,0,0,0,0,0,0,0,0,0,0,0,0,0,0,0,0,0,0,0,0,0,0,0,-0.0929,-0.093,0,-0.0969,-0.0969,-0.097,-0.1007,-0.1008,-0.1008,-0.1009,-0.1083,-0.1085,-0.1086,0,0,0,0,0,0,0,0,0,0,0,0,0,-0.0895,-0.0895,-0.0929,-0.093,-0.093,-0.0969,-0.0969,-0.097,-0.1007,-0.1008,-0.1008,-0.1009,-0.1082,-0.1084,-0.1086,0,0,0,0,0,0,0,0,0,0,0,0,0,-0.092,-0.0896,-0.0929,-0.0953,-0.0956,-0.0968,-0.0969,-0.097,-0.1007,-0.1008,-0.1009,-0.1009,-0.1082,-0.1084,-0.1086,-0.1088,0,0,-0.1094,-0.1095,0,0,0,0,0,0,0,0,-0.0919,-0.0921,-0.0949,-0.0951,-0.0954,-0.0983,-0.0984,-0.1011,-0.1007,-0.0988,-0.1009,-0.101,-0.1052,-0.1057,-0.1063,-0.1091,-0.1094,-0.1094,-0.1095,-0.1096,-0.1097,0,0,0,0,0,0,0,-0.0917,-0.092,-0.0945,-0.095,-0.0953,-0.0965,-0.0969,-0.099,-0.1017,-0.099,-0.0993,-0.0996,-0.1054,-0.1061,-0.1065,-0.1096,-0.1094,-0.1096,-0.1097,-0.1098,-0.1138,-0.1138,0,0,0,0,0,0,-0.091,-0.0918,-0.0944,-0.0946,-0.0937,-0.0965,-0.097,-0.0974,-0.1016,-0.1023,-0.0995,-0.0998,-0.1056,-0.1062,-0.1068,-0.1068,-0.1096,-0.1098,-0.11,-0.1139,-0.1138,-0.1138,0,0,0,0,0,0,-0.0909,-0.0912,-0.0942,-0.0933,-0.0938,-0.0965,-0.0969,-0.0974,-0.098,-0.102,-0.1027,-0.0996,-0.1057,-0.1065,-0.108,-0.1071,-0.11,-0.1102,-0.1139,-0.1138,-0.1138,-0.107,0,0,0,0,0,0,-0.0908,-0.0911,-0.0905,-0.0932,-0.0938,-0.0939,-0.0969,-0.0974,-0.0981,-0.0985,-0.1023,-0.1031,-0.1058,-0.1076,-0.1082,-0.1075,-0.1104,-0.1139,-0.1139,-0.1138,-0.1073,-0.1068,-0.1063,0,0,0,0,0,-0.0906,-0.0883,-0.0905,-0.0907,-0.0931,-0.0939,-0.0942,-0.0964,-0.0981,-0.0974,-0.1003,-0.1029,-0.1076,-0.1077,-0.1084,-0.1078,-0.114,-0.1139,-0.1138,-0.1075,-0.1069,-0.1063,0,0,0,0,0,0,-0.0853,-0.0886,-0.091,-0.0896,-0.0916,-0.0945,-0.0933,-0.0958,-0.0975,-0.0977,-0.1021,-0.103,-0.104,-0.1068,-0.1068,-0.1089,-0.1114,-0.1115,-0.1064,-0.1058,-0.1053,-0.1039,-0.1105,0,0,0,0,0,-0.0843,-0.0842,-0.0877,-0.0865,-0.0871,-0.0905,-0.091,-0.0929,-0.095,-0.0958,-0.0991,-0.1021,-0.1042,-0.1056,-0.1078,-0.1087,-0.1105,-0.109,-0.1085,-0.108,-0.1075,-0.1098,-0.1094,-0.1135,-0.1135,-0.1135,0,0,-0.082,-0.0835,-0.0836,-0.0855,-0.087,-0.0872,-0.0908,-0.0907,-0.0914,-0.0963,-0.0974,-0.1001,-0.1039,-0.1048,-0.1057,-0.1072,-0.1074,-0.1079,-0.1075,-0.1072,-0.1096,-0.1092,-0.1089,-0.1135,-0.1135,-0.1135,0,0,-0.0772,-0.0787,-0.0776,-0.079,-0.081,-0.0832,-0.0831,-0.0863,-0.0879,-0.0894,-0.0931,-0.0951,-0.0988,-0.1012,-0.103,-0.1011,-0.1043,-0.1022,-0.0989,-0.1011,-0.1008,-0.1005,-0.1001,-0.0999,-0.1024,-0.1024,-0.1023,0,-0.0748,-0.0736,-0.077,-0.0764,-0.0763,-0.0813,-0.0798,-0.0823,-0.0859,-0.0867,-0.0887,-0.0937,-0.097,-0.0984,-0.098,-0.0998,-0.1009,-0.1007,-0.1003,-0.1001,-0.0999,-0.0997,-0.0995,-0.102,-0.1021,-0.1021,-0.1021,0,-0.0703,-0.0692,-0.0677,-0.0695,-0.0701,-0.0688,-0.0732,-0.0744,-0.0773,-0.0805,-0.0824,-0.0869,-0.0899,-0.0915,-0.0942,-0.0948,-0.0957,-0.0989,-0.1015,-0.0991,-0.099,-0.0989,-0.1015,-0.1017,-0.1018,-0.1018,0,0,-0.0641,-0.0649,-0.0641,-0.0629,-0.0659,-0.0651,-0.0666,-0.0685,-0.0681,-0.0735,-0.0732,-0.0785,-0.0817,-0.0839,-0.088,-0.0904,-0.0898,-0.0938,-0.0941,-0.0927,-0.0926,-0.0876,-0.087,-0.0931,-0.0931,-0.0931,-0.0922,0,-0.0591,-0.0554,-0.0579,-0.0538,-0.0516,-0.0564,-0.0567,-0.0596,-0.0628,-0.0641,-0.0707,-0.072,-0.0788,-0.0791,-0.0831,-0.0876,-0.0896,-0.0896,-0.0959,-0.096,-0.0912,-0.0868,-0.0802,-0.0784,-0.0922,-0.0922,-0.0922,0,-0.0523,-0.0509,-0.0459,-0.0443,-0.0438,-0.0429,-0.0426,-0.0438,-0.0489,-0.0518,-0.0566,-0.0619,-0.0664,-0.0722,-0.0802,-0.0799,-0.0856,-0.0899,-0.09,-0.0877,-0.0908,-0.0836,-0.0778,-0.0922,-0.0921,-0.0921,-0.0921,0,-0.0423,-0.0408,-0.0357,-0.0354,-0.0361,-0.0345,-0.0353,-0.039,-0.0381,-0.0436,-0.0433,-0.052,-0.0532,-0.0634,-0.0731,-0.0767,-0.0803,-0.0868,-0.0876,-0.0873,-0.084,-0.0833,-0.0922,-0.0922,-0.0922,-0.0922,-0.0922,0,-0.0329,-0.0281,-0.0304,-0.0268,-0.0209,-0.0251,-0.0198,-0.023,-0.0254,-0.0217,-0.0356,-0.0338,-0.051,-0.056,-0.0681,-0.0751,-0.0768,-0.085,-0.0864,-0.0812,-0.0803,-0.0947,-0.1038,-0.0921,-0.0921,-0.0921,-0.0922,0,-0.0197,-0.0214,-0.0149,-0.0151,-0.0148,-0.0099,-0.0091,-0.0059,-0.011,-0.0063,-0.0072,-0.0179,-0.0241,-0.0396,-0.0527,-0.0649,-0.0798,-0.0771,-0.0681,-0.0684,-0.0839,-0.0928,-0.1011,-0.1052,-0.0786,-0.0785,-0.0783,0,-0.011,-0.0073,-0.0048,-0.0011,-0.0002,0.004,0.0072,0.0029,0.0066,0.0053,0.0097,0.0036,0.0032,-0.0152,-0.0361,-0.0534,-0.0708,-0.0621,-0.0691,-0.0816,-0.0927,-0.1001,-0.1036,-0.0618,-0.0616,-0.0614,-0.0612,0,0.0044,0.0043,0.0084,0.0139,0.0188,0.0237,0.0279,0.0329,0.0307,0.0358,0.0419,0.0416,0.0232,0.0101,-0.016,-0.0323,-0.0691,-0.0586,-0.0751,-0.0819,-0.087,-0.0925,-0.065,-0.0595,-0.0596,-0.0598,-0.0599,-0.0599,0.0166,0.0214,0.0244,0.0307,0.036,0.0438,0.0513,0.0572,0.0678,0.0787,0.0731,0.0795,0.0509,0.017,-0.0071,-0.05,-0.0548,-0.0645,-0.0743,-0.0807,-0.0843,-0.0506,-0.045,-0.0451,-0.0452,-0.0452,-0.0453,0,0.0304,0.0333,0.0399,0.048,0.057,0.0551,0.0658,0.0753,0.0933,0.1042,0.1138,0.1064,0.0723,0.0286,-0.0283,-0.0594,-0.0751,-0.0801,-0.0921,-0.0952,-0.0676,-0.0666,-0.061,-0.061,-0.0609,-0.0609,-0.0609,-0.0609,0.0383,0.0469,0.0483,0.0655,0.0711,0.0843,0.0919,0.107,0.1181,0.1375,0.1448,0.1462,0.1118,0.0054,-0.0673,-0.0852,-0.1105,-0.1129,-0.1279,-0.1135,-0.113,-0.1125,-0.1139,-0.1183,-0.1184,-0.1494,-0.1497,-0.15]}],[{"header":{"parameterUnit":"m.s-1","parameterCategory":2,"la1":30.2991,"la2":30.254,"lo1":-89.0895,"lo2":-89.0444,"dy":0.0017,"dx":0.0017,"nx":28,"ny":28,"refTime":"2024-10-12T21:00:00:Z","depth":"2","parameterNumber":2,"parameterNumberName":"U-component_of_CURRENTS"},"data":[0,0,0,0,0,0,0,0,0,0,0,0,0,0,0,0,0,0,0,0,0,0,0,0,0,0,0,0,0,0,0,0,0,0,0,0,0,0,0,0,0,0,0,0,0,0,0,0,0,0,0,0,0,0,0,0,0,0,0.1951,0.1952,0,0.1982,0.1982,0.1982,0.1966,0.1966,0.1965,0.1965,0.1994,0.1995,0.1996,0,0,0,0,0,0,0,0,0,0,0,0,0,0.1841,0.1843,0.1951,0.1952,0.1953,0.1982,0.1982,0.1982,0.1966,0.1966,0.1965,0.1965,0.1994,0.1995,0.1996,0,0,0,0,0,0,0,0,0,0,0,0,0,0.1877,0.1843,0.1951,0.1953,0.1954,0.1982,0.1982,0.1982,0.1966,0.1966,0.1965,0.1965,0.1993,0.1995,0.1996,0.2016,0,0,0.2001,0.2002,0,0,0,0,0,0,0,0,0.1875,0.188,0.1952,0.1953,0.1954,0.1974,0.1954,0.1995,0.1966,0.1956,0.1965,0.1964,0.1991,0.1993,0.1992,0.2017,0.2018,0.2001,0.2002,0.2003,0.2004,0,0,0,0,0,0,0,0.1872,0.1878,0.1958,0.1953,0.1954,0.1939,0.1943,0.1961,0.1971,0.1956,0.1957,0.1969,0.1991,0.199,0.1993,0.2019,0.2001,0.2003,0.2004,0.2004,0.2127,0.2129,0,0,0,0,0,0,0.1883,0.1877,0.1957,0.1959,0.1919,0.1942,0.1947,0.1964,0.1971,0.1974,0.1969,0.1968,0.1988,0.1991,0.1994,0.2068,0.2003,0.2005,0.2006,0.2125,0.2127,0.213,0,0,0,0,0,0,0.188,0.189,0.1956,0.1922,0.193,0.1945,0.1964,0.1965,0.198,0.1982,0.1983,0.1986,0.1988,0.1992,0.2034,0.2067,0.2005,0.2007,0.2122,0.2125,0.2129,0.2183,0,0,0,0,0,0,0.1877,0.1889,0.1904,0.1924,0.1933,0.1988,0.1965,0.1966,0.199,0.1989,0.1997,0.1998,0.1988,0.2031,0.2035,0.2068,0.2008,0.2119,0.2124,0.2128,0.2179,0.2188,0.2196,0,0,0,0,0,0.1873,0.19,0.1905,0.1915,0.1955,0.199,0.1993,0.1997,0.1992,0.2007,0.2018,0.1999,0.2061,0.2035,0.2038,0.2072,0.2117,0.2122,0.2127,0.2175,0.2186,0.2196,0,0,0,0,0,0,0.1869,0.1902,0.1908,0.1947,0.1974,0.199,0.2016,0.2012,0.2031,0.2038,0.2026,0.203,0.2084,0.2076,0.2046,0.2124,0.2087,0.2093,0.2122,0.2133,0.2142,0.2136,0.2009,0,0,0,0,0,0.1876,0.1905,0.1933,0.197,0.1991,0.2006,0.2022,0.2026,0.2046,0.2054,0.2053,0.2071,0.2107,0.2117,0.2142,0.2178,0.2206,0.2205,0.2214,0.2222,0.2222,0.2295,0.231,0.2147,0.2147,0.2147,0,0,0.1879,0.1913,0.1923,0.1971,0.1999,0.2021,0.2014,0.2056,0.2071,0.2057,0.2084,0.2108,0.2129,0.2175,0.2197,0.2169,0.2292,0.2228,0.2234,0.223,0.2302,0.2317,0.2331,0.215,0.215,0.2149,0,0,0.1906,0.1943,0.1968,0.1994,0.2045,0.2056,0.2073,0.2095,0.211,0.2139,0.2148,0.2195,0.2215,0.2246,0.2264,0.234,0.2346,0.2347,0.2374,0.2445,0.2459,0.2471,0.256,0.258,0.2339,0.2339,0.2339,0,0.1905,0.1953,0.1983,0.2017,0.2046,0.2073,0.2102,0.2121,0.2147,0.2178,0.2156,0.2237,0.2251,0.2333,0.2352,0.236,0.2402,0.2327,0.2456,0.2468,0.2479,0.2568,0.2589,0.2342,0.2342,0.2342,0.2341,0,0.1945,0.198,0.2013,0.2057,0.2086,0.2132,0.216,0.2193,0.2209,0.2223,0.2304,0.2328,0.2375,0.2393,0.2387,0.2485,0.2493,0.2467,0.2423,0.2499,0.2588,0.2609,0.2347,0.2346,0.2345,0.2344,0,0,0.1956,0.2019,0.2028,0.2067,0.2118,0.2156,0.2199,0.226,0.2313,0.2328,0.239,0.2449,0.2466,0.2489,0.2506,0.2551,0.2677,0.2535,0.2537,0.2615,0.2856,0.2867,0.2891,0.2668,0.2671,0.2674,0.2897,0,0.1986,0.205,0.2064,0.2131,0.2184,0.2216,0.2257,0.2311,0.2357,0.2419,0.2465,0.2532,0.2503,0.2544,0.2586,0.2657,0.2729,0.262,0.2777,0.2783,0.2776,0.2913,0.2531,0.2698,0.2917,0.2921,0.2923,0,0.2037,0.2078,0.2135,0.2212,0.2235,0.2264,0.2373,0.2411,0.2497,0.2529,0.2592,0.262,0.2711,0.2662,0.2819,0.275,0.2812,0.2853,0.2862,0.2861,0.2831,0.2653,0.2727,0.2958,0.2955,0.2952,0.295,0,0.2083,0.2145,0.2199,0.2221,0.2287,0.233,0.2375,0.2461,0.2501,0.2618,0.2654,0.2753,0.2813,0.2891,0.2969,0.2907,0.3137,0.3068,0.3149,0.3151,0.2851,0.2822,0.3197,0.3197,0.3196,0.3196,0.3195,0,0.2133,0.2181,0.2232,0.2261,0.233,0.2384,0.2459,0.252,0.2597,0.2661,0.2721,0.2786,0.2868,0.2985,0.3037,0.3181,0.3211,0.3197,0.3221,0.2866,0.2837,0.3059,0.304,0.3204,0.3202,0.3201,0.3199,0,0.2155,0.2195,0.2258,0.2326,0.2352,0.2405,0.2461,0.2511,0.261,0.2696,0.2732,0.2842,0.3012,0.3116,0.3279,0.3289,0.3414,0.3458,0.3057,0.303,0.3362,0.3344,0.3574,0.3576,0.3578,0.358,0.3582,0,0.2164,0.22,0.227,0.2291,0.2313,0.2382,0.2412,0.2502,0.2553,0.2727,0.2766,0.2954,0.3019,0.3279,0.3298,0.3431,0.3545,0.3266,0.3079,0.3407,0.3407,0.3385,0.3364,0.2712,0.2706,0.2701,0.2698,0,0.2151,0.2176,0.2203,0.224,0.2279,0.2313,0.2386,0.2407,0.2537,0.2595,0.2708,0.2773,0.2973,0.2915,0.3132,0.3162,0.3204,0.3182,0.3633,0.2691,0.2616,0.2609,0.2612,0.2656,0.266,0.2663,0.2665,0.2667,0.2113,0.2107,0.2134,0.2149,0.2198,0.2222,0.2196,0.2275,0.2305,0.2364,0.2533,0.2547,0.2636,0.271,0.2734,0.2793,0.2995,0.2927,0.2931,0.2943,0.2818,0.2753,0.2796,0.28,0.2805,0.2808,0.2812,0,0.2015,0.2004,0.2029,0.2027,0.2011,0.2096,0.2137,0.208,0.2046,0.2176,0.2201,0.2072,0.2062,0.2243,0.2172,0.2264,0.2118,0.23,0.2038,0.2081,0.212,0.1943,0.1695,0.1692,0.169,0.1687,0,0,0.1954,0.1908,0.19,0.1822,0.183,0.1774,0.1762,0.173,0.1777,0.1729,0.1734,0.1871,0.2061,0.1792,0.1811,0.1739,0.1888,0.1689,0.2566,0.2289,0.2324,0.2458,0.2235,0,0,0,0,0]},{"header":{"parameterUnit":"m.s-1","parameterCategory":2,"la1":30.2991,"la2":30.254,"lo1":-89.0895,"lo2":-89.0444,"dy":0.0017,"dx":0.0017,"nx":28,"ny":28,"refTime":"2024-10-12T21:00:00:Z","depth":"2","parameterNumber":3,"parameterNumberName":"V-component_of_CURRENTS"},"data":[0,0,0,0,0,0,0,0,0,0,0,0,0,0,0,0,0,0,0,0,0,0,0,0,0,0,0,0,0,0,0,0,0,0,0,0,0,0,0,0,0,0,0,0,0,0,0,0,0,0,0,0,0,0,0,0,0,0,0.0434,0.0434,0,0.0376,0.0375,0.0375,0.0297,0.0295,0.0294,0.0293,0.0102,0.0098,0.0094,0,0,0,0,0,0,0,0,0,0,0,0,0,0.0484,0.0483,0.0434,0.0434,0.0433,0.0376,0.0375,0.0375,0.0297,0.0295,0.0294,0.0292,0.0103,0.0098,0.0094,0,0,0,0,0,0,0,0,0,0,0,0,0,0.0449,0.0483,0.0435,0.0386,0.038,0.0376,0.0375,0.0375,0.0298,0.0295,0.0293,0.0291,0.0104,0.0099,0.0093,0.0104,0,0,0.0076,0.0074,0,0,0,0,0,0,0,0,0.0452,0.0448,0.0394,0.0389,0.0383,0.0339,0.0322,0.0277,0.0298,0.0331,0.0293,0.029,0.0169,0.0158,0.0157,0.0095,0.0087,0.0076,0.0073,0.007,0.0069,0,0,0,0,0,0,0,0.0454,0.045,0.0413,0.0393,0.0386,0.0368,0.0361,0.0314,0.0263,0.0328,0.0322,0.0313,0.0165,0.0163,0.0151,0.0084,0.0076,0.0071,0.0068,0.0066,-0.0056,-0.0055,0,0,0,0,0,0,0.0459,0.0453,0.0415,0.0411,0.041,0.0368,0.0361,0.0358,0.0266,0.025,0.0315,0.0309,0.0173,0.0158,0.0144,0.0088,0.007,0.0065,0.0062,-0.0056,-0.0056,-0.0055,0,0,0,0,0,0,0.0461,0.0457,0.0417,0.0428,0.0422,0.037,0.0367,0.0357,0.0312,0.0257,0.0238,0.0273,0.0171,0.0152,0.0096,0.0082,0.0063,0.0057,-0.0056,-0.0056,-0.0055,0.0015,0,0,0,0,0,0,0.0463,0.0458,0.0438,0.0429,0.0421,0.0394,0.0369,0.0358,0.0311,0.0302,0.0216,0.0199,0.0168,0.0105,0.0091,0.0074,0.0053,-0.0056,-0.0056,-0.0056,0.0013,0.0018,0.0022,0,0,0,0,0,0.0465,0.0433,0.0438,0.0432,0.0402,0.0393,0.0387,0.0344,0.0311,0.0294,0.025,0.0199,0.0095,0.0101,0.0084,0.0065,-0.0056,-0.0056,-0.0056,0.0011,0.0017,0.0022,0,0,0,0,0,0,0.0422,0.0423,0.0427,0.0392,0.0391,0.0378,0.0338,0.0327,0.0282,0.025,0.0206,0.0187,0.0136,0.0092,0.0099,0.0032,0.0008,0.0005,0.0064,0.007,0.0074,0.0069,0.0049,0,0,0,0,0,0.0416,0.0392,0.0408,0.037,0.0369,0.0355,0.0335,0.0316,0.0285,0.026,0.0213,0.016,0.0134,0.0092,0.0058,0.0015,-0.003,-0.001,-0.0005,-0.0001,-0.0016,-0.007,-0.0072,-0.0055,-0.0055,-0.0055,0,0,0.0394,0.0378,0.0369,0.036,0.0345,0.0362,0.0335,0.0293,0.0298,0.0245,0.0206,0.0172,0.0129,0.0099,0.0068,0.0049,-0.0027,-0.0001,0.0003,-0.0015,-0.007,-0.0072,-0.0074,-0.0054,-0.0054,-0.0054,0,0,0.0356,0.0322,0.0318,0.0323,0.0304,0.0309,0.0296,0.0283,0.026,0.0239,0.0214,0.0179,0.0112,0.0103,0.0087,0.009,0.001,0.0058,0.0062,0.0012,0.001,0.0007,-0.0037,-0.0044,0.0049,0.005,0.005,0,0.0332,0.032,0.0311,0.0319,0.0306,0.0292,0.0299,0.0298,0.0268,0.0252,0.0221,0.0159,0.0125,0.0112,0.0118,0.01,0.0048,0.005,0.0018,0.0014,0.0011,-0.0035,-0.0043,0.0053,0.0053,0.0052,0.0052,0,0.0326,0.0309,0.029,0.0312,0.0312,0.0283,0.0311,0.0296,0.026,0.0262,0.0218,0.0188,0.014,0.0138,0.0126,0.0089,0.0055,0.0043,0.0007,0.0013,-0.0035,-0.0045,0.0058,0.0057,0.0056,0.0055,0,0,0.0267,0.0291,0.0276,0.029,0.0288,0.0292,0.0301,0.0309,0.0303,0.0269,0.0247,0.0225,0.0178,0.0157,0.0132,0.0097,0.0048,0.0047,0.0043,0.0008,-0.0081,-0.0041,-0.0049,0.0014,0.0013,0.0011,-0.0099,0,0.0251,0.0274,0.0279,0.0287,0.0301,0.0297,0.0315,0.0321,0.0303,0.0286,0.025,0.0214,0.0195,0.0152,0.0118,0.0071,0.0019,0.0078,-0.0089,-0.0094,-0.0055,-0.006,-0.0064,-0.0158,-0.0109,-0.0111,-0.0112,0,0.0238,0.0244,0.0268,0.0281,0.0283,0.0296,0.029,0.0301,0.03,0.0275,0.0233,0.0197,0.0153,0.0122,0.0022,0.0048,-0.0029,-0.0065,-0.0071,-0.0071,-0.0073,-0.0161,-0.0179,-0.013,-0.0129,-0.0127,-0.0126,0,0.0214,0.0221,0.0232,0.0237,0.0275,0.0268,0.027,0.0283,0.0297,0.0248,0.0242,0.017,0.0134,0.0032,-0.003,-0.0039,-0.0137,-0.0157,-0.0193,-0.0192,-0.0246,-0.0245,-0.0261,-0.0261,-0.0261,-0.0261,-0.026,0,0.0196,0.0197,0.0218,0.0233,0.024,0.0245,0.0253,0.0256,0.0252,0.0303,0.0215,0.025,0.0103,0.0052,-0.0043,-0.013,-0.0159,-0.0202,-0.022,-0.0217,-0.0213,-0.0233,-0.0228,-0.0265,-0.0264,-0.0263,-0.0262,0,0.0213,0.0214,0.024,0.025,0.0249,0.0257,0.028,0.0307,0.027,0.0329,0.0308,0.0284,0.0227,0.0101,-0.0036,-0.0123,-0.0224,-0.0257,-0.0232,-0.0244,-0.0254,-0.0245,-0.0341,-0.0341,-0.034,-0.034,-0.034,0,0.025,0.0261,0.0276,0.0295,0.0301,0.0307,0.0341,0.0324,0.038,0.0409,0.0468,0.0398,0.0435,0.0237,0.0033,-0.0166,-0.0176,-0.0296,-0.0303,-0.0256,-0.0265,-0.0256,-0.0247,-0.0355,-0.0355,-0.0355,-0.0355,0,0.0319,0.031,0.0335,0.0378,0.0403,0.0453,0.0494,0.0548,0.0571,0.0625,0.0733,0.0739,0.054,0.0359,0.0056,-0.0071,-0.0267,-0.0297,-0.0284,-0.0306,-0.0271,-0.0278,-0.0269,-0.0354,-0.0354,-0.0354,-0.0354,-0.0355,0.0369,0.0405,0.0431,0.0476,0.0521,0.0614,0.0673,0.0751,0.0859,0.0941,0.0949,0.0945,0.0675,0.0308,0.0061,-0.0232,-0.0224,-0.0334,-0.0335,-0.0336,-0.0289,-0.0252,-0.0325,-0.0325,-0.0325,-0.0324,-0.0324,0,0.0445,0.0484,0.0536,0.0603,0.0684,0.068,0.0804,0.0871,0.1034,0.1091,0.1141,0.0926,0.068,0.0383,-0.006,-0.0307,-0.0353,-0.0366,-0.0385,-0.0384,-0.0384,-0.034,-0.039,-0.039,-0.0391,-0.0391,0,0,0.0486,0.0554,0.0588,0.0735,0.0789,0.0904,0.0981,0.1081,0.1143,0.1224,0.1204,0.11,0.0759,0.044,0.0088,-0.0152,-0.0206,-0.0195,-0.0122,-0.0104,-0.0101,-0.0351,-0.028,0,0,0,0,0]}],[{"header":{"parameterUnit":"m.s-1","parameterCategory":2,"la1":30.2991,"la2":30.254,"lo1":-89.0895,"lo2":-89.0444,"dy":0.0017,"dx":0.0017,"nx":28,"ny":28,"refTime":"2024-10-12T21:00:00:Z","depth":"4","parameterNumber":2,"parameterNumberName":"U-component_of_CURRENTS"},"data":[0,0,0,0,0,0,0,0,0,0,0,0,0,0,0,0,0,0,0,0,0,0,0,0,0,0,0,0,0,0,0,0,0,0,0,0,0,0,0,0,0,0,0,0,0,0,0,0,0,0,0,0,0,0,0,0,0,0,0.055,0.055,0,0.0592,0.0593,0.0593,0.0674,0.0675,0.0677,0.0678,0.0823,0.0825,0.0828,0,0,0,0,0,0,0,0,0,0,0,0,0,0.0531,0.0531,0.055,0.055,0.0551,0.0592,0.0593,0.0594,0.0673,0.0675,0.0677,0.0679,0.0822,0.0825,0.0828,0,0,0,0,0,0,0,0,0,0,0,0,0,0.0553,0.0531,0.055,0.0595,0.06,0.0592,0.0593,0.0594,0.0673,0.0675,0.0677,0.068,0.0821,0.0825,0.0828,0.0805,0,0,0.0839,0.0841,0,0,0,0,0,0,0,0,0.0552,0.0554,0.0588,0.0592,0.0597,0.063,0.0639,0.0669,0.0672,0.0646,0.0678,0.0681,0.0766,0.0774,0.0776,0.0812,0.0818,0.084,0.0842,0.0844,0.0845,0,0,0,0,0,0,0,0.055,0.0552,0.0567,0.0589,0.0594,0.0611,0.0617,0.0645,0.0695,0.0648,0.0654,0.0657,0.0769,0.0772,0.078,0.082,0.084,0.0843,0.0845,0.0847,0.0964,0.0964,0,0,0,0,0,0,0.0542,0.0551,0.0566,0.0568,0.0579,0.061,0.0616,0.0617,0.0692,0.0705,0.0655,0.0661,0.0765,0.0776,0.0786,0.0926,0.0844,0.0847,0.0849,0.0963,0.0964,0.0965,0,0,0,0,0,0,0.0541,0.0542,0.0564,0.0561,0.0565,0.0608,0.0608,0.0617,0.0681,0.0696,0.0712,0.0718,0.0767,0.0781,0.0875,0.0926,0.0849,0.0852,0.0962,0.0963,0.0964,0.1101,0,0,0,0,0,0,0.054,0.0542,0.056,0.056,0.0564,0.0612,0.0606,0.0616,0.0675,0.0685,0.0754,0.0766,0.077,0.0869,0.0878,0.093,0.0855,0.096,0.0962,0.0964,0.1095,0.1107,0.1117,0,0,0,0,0,0.0539,0.0558,0.0561,0.0564,0.0581,0.0614,0.062,0.0657,0.0677,0.0721,0.077,0.0767,0.0885,0.0874,0.0884,0.0938,0.096,0.0962,0.0964,0.109,0.1105,0.1116,0,0,0,0,0,0,0.0556,0.0567,0.0571,0.0591,0.0622,0.0629,0.0663,0.0688,0.0756,0.0784,0.0799,0.0816,0.0904,0.0896,0.0884,0.0968,0.0913,0.0917,0.1005,0.1018,0.1029,0.1076,0.0858,0,0,0,0,0,0.0563,0.0586,0.0598,0.0618,0.0635,0.0658,0.0682,0.0716,0.076,0.0794,0.0852,0.0887,0.0904,0.0949,0.0967,0.1036,0.1001,0.1065,0.1076,0.1085,0.1126,0.1082,0.1094,0.0972,0.0972,0.0972,0,0,0.0568,0.0582,0.0591,0.0625,0.0644,0.0683,0.0682,0.0742,0.0813,0.0798,0.0936,0.0938,0.0927,0.0998,0.1035,0.1016,0.11,0.1088,0.1097,0.1133,0.1086,0.1098,0.1109,0.0973,0.0973,0.0973,0,0,0.059,0.0608,0.0637,0.0667,0.0719,0.0739,0.0772,0.0833,0.0908,0.1024,0.1001,0.1045,0.113,0.1112,0.1109,0.1186,0.1148,0.119,0.1308,0.1265,0.1276,0.1284,0.1255,0.126,0.1207,0.1208,0.1208,0,0.0614,0.0636,0.0654,0.0692,0.0735,0.0772,0.0832,0.0894,0.0997,0.1071,0.1103,0.1181,0.1177,0.1203,0.124,0.1216,0.1196,0.1266,0.1282,0.129,0.1297,0.1264,0.1268,0.1215,0.1214,0.1213,0.1212,0,0.0633,0.068,0.0703,0.0763,0.0817,0.0878,0.0954,0.1066,0.1169,0.1224,0.1345,0.1341,0.139,0.1373,0.1355,0.1385,0.1357,0.1291,0.1258,0.1318,0.1279,0.1281,0.1224,0.1222,0.122,0.1218,0,0,0.0639,0.071,0.0727,0.0778,0.0874,0.0919,0.1065,0.1195,0.1292,0.1417,0.1531,0.1568,0.1581,0.1575,0.1525,0.1506,0.1529,0.1458,0.1452,0.1446,0.1465,0.1391,0.1385,0.1477,0.1478,0.1479,0.142,0,0.0672,0.0745,0.0793,0.0901,0.095,0.1059,0.1178,0.1306,0.1435,0.1555,0.1588,0.1655,0.1646,0.1668,0.1662,0.155,0.1542,0.1553,0.1395,0.1391,0.133,0.1387,0.1483,0.1421,0.1421,0.1421,0.1421,0,0.068,0.0739,0.0846,0.0984,0.1022,0.1122,0.1332,0.1455,0.1613,0.1702,0.1799,0.1804,0.1832,0.1785,0.1717,0.1737,0.1648,0.1557,0.155,0.1444,0.1321,0.1344,0.1423,0.1423,0.1423,0.1423,0.1423,0,0.0652,0.0783,0.0881,0.0923,0.108,0.122,0.1354,0.1534,0.1605,0.1809,0.1826,0.1906,0.1894,0.1853,0.1698,0.174,0.1554,0.1561,0.141,0.1402,0.1426,0.1417,0.1505,0.1505,0.1505,0.1506,0.1506,0,0.0658,0.0741,0.0898,0.0947,0.1105,0.1254,0.1438,0.1584,0.1704,0.1728,0.1901,0.1849,0.1909,0.1798,0.1719,0.1555,0.157,0.1463,0.1391,0.1482,0.148,0.1426,0.1418,0.1503,0.1504,0.1504,0.1505,0,0.0625,0.0709,0.0816,0.1012,0.1092,0.1235,0.143,0.1494,0.1672,0.1699,0.1741,0.1791,0.1746,0.1701,0.1573,0.1526,0.1386,0.1291,0.1383,0.131,0.1292,0.1292,0.1262,0.1259,0.1257,0.1255,0.1253,0,0.0598,0.0655,0.0835,0.0884,0.1004,0.1209,0.1287,0.1478,0.1494,0.1588,0.1519,0.1547,0.1573,0.1365,0.1357,0.1276,0.1222,0.1188,0.1323,0.1339,0.1272,0.1275,0.1278,0.1249,0.1248,0.1248,0.1247,0,0.0546,0.0628,0.0718,0.0806,0.0909,0.1004,0.1147,0.1129,0.1295,0.1375,0.1334,0.1363,0.1297,0.1307,0.1222,0.1129,0.1273,0.1164,0.1173,0.1301,0.1322,0.1259,0.1265,0.1239,0.124,0.1241,0.1241,0,0.0508,0.0547,0.0625,0.0751,0.0811,0.0836,0.0928,0.0964,0.1018,0.1142,0.1078,0.1153,0.1225,0.1209,0.1075,0.1068,0.1136,0.1152,0.1163,0.1173,0.1175,0.1191,0.103,0,0,0,0,0,0.0472,0.0508,0.0542,0.0662,0.0702,0.0757,0.0811,0.0877,0.0995,0.0939,0.1046,0.1005,0.1033,0.1031,0.1019,0.104,0.1105,0.1022,0.112,0.1191,0.1201,0.1214,0,0,0,0,0,0,0.0428,0.0454,0.0513,0.0563,0.0627,0.0653,0.0697,0.0754,0.0756,0.088,0.0878,0.0998,0.0993,0.1052,0.1023,0.1027,0.1082,0.1068,0.1067,0.1186,0.1195,0.1203,0.1219,0,0,0,0,0]},{"header":{"parameterUnit":"m.s-1","parameterCategory":2,"la1":30.2991,"la2":30.254,"lo1":-89.0895,"lo2":-89.0444,"dy":0.0017,"dx":0.0017,"nx":28,"ny":28,"refTime":"2024-10-12T21:00:00:Z","depth":"4","parameterNumber":3,"parameterNumberName":"V-component_of_CURRENTS"},"data":[0,0,0,0,0,0,0,0,0,0,0,0,0,0,0,0,0,0,0,0,0,0,0,0,0,0,0,0,0,0,0,0,0,0,0,0,0,0,0,0,0,0,0,0,0,0,0,0,0,0,0,0,0,0,0,0,0,0,0.0097,0.0097,0,0.0026,0.0025,0.0024,0.0005,0.0006,0.0006,0.0007,-0.0096,-0.0099,-0.0102,0,0,0,0,0,0,0,0,0,0,0,0,0,0.018,0.0179,0.0097,0.0096,0.0096,0.0026,0.0025,0.0024,0.0005,0.0006,0.0006,0.0007,-0.0095,-0.0098,-0.0102,0,0,0,0,0,0,0,0,0,0,0,0,0,0.0129,0.0178,0.0097,0.0079,0.0076,0.0026,0.0025,0.0024,0.0005,0.0006,0.0007,0.0007,-0.0093,-0.0098,-0.0103,-0.0148,0,0,-0.0118,-0.012,0,0,0,0,0,0,0,0,0.0132,0.0126,0.0082,0.008,0.0077,0.0026,0.0017,-0.0035,0.0005,0.0031,0.0007,0.0008,-0.0058,-0.0066,-0.0082,-0.0153,-0.0157,-0.0118,-0.0121,-0.0123,-0.0124,0,0,0,0,0,0,0,0.0136,0.0129,0.0068,0.0081,0.0078,0.0061,0.0055,0.0007,-0.0018,0.0029,0.0028,0.0021,-0.0059,-0.0077,-0.0084,-0.0159,-0.0118,-0.0122,-0.0125,-0.0127,-0.0278,-0.0279,0,0,0,0,0,0,0.0147,0.0132,0.007,0.0066,0.0108,0.0059,0.0052,0.0041,-0.0017,-0.0025,0.002,0.002,-0.0069,-0.0079,-0.0088,-0.0128,-0.0123,-0.0127,-0.013,-0.0277,-0.0279,-0.028,0,0,0,0,0,0,0.0149,0.0142,0.0073,0.0099,0.0089,0.0057,0.0044,0.0039,0.0023,-0.0023,-0.0031,0.001,-0.0069,-0.0081,-0.0139,-0.0132,-0.013,-0.0134,-0.0276,-0.0278,-0.0279,-0.0219,0,0,0,0,0,0,0.0152,0.0143,0.0141,0.0099,0.0088,0.0045,0.0044,0.0037,0.0018,0.0017,-0.0035,-0.0043,-0.0069,-0.0131,-0.0143,-0.0139,-0.0138,-0.0274,-0.0277,-0.0279,-0.0219,-0.0218,-0.0217,0,0,0,0,0,0.0155,0.015,0.0141,0.0134,0.0085,0.0045,0.0037,0.0017,0.0017,0.0006,-0.0034,-0.0042,-0.0153,-0.0137,-0.0151,-0.0147,-0.0273,-0.0276,-0.0278,-0.022,-0.0218,-0.0217,0,0,0,0,0,0,0.0183,0.0146,0.0136,0.012,0.0086,0.0042,0.0035,0.0015,-0.0025,-0.0022,-0.0065,-0.0077,-0.0128,-0.0156,-0.0137,-0.02,-0.0212,-0.0217,-0.0162,-0.0161,-0.016,-0.0116,-0.0142,0,0,0,0,0,0.0188,0.0176,0.0134,0.012,0.0108,0.007,0.0053,0.0036,-0.0004,-0.0019,-0.0055,-0.01,-0.0152,-0.0169,-0.0221,-0.0256,-0.0287,-0.0264,-0.0262,-0.0261,-0.0237,-0.0316,-0.0319,-0.0288,-0.0288,-0.0288,0,0,0.0194,0.0174,0.0166,0.0126,0.0103,0.0085,0.0062,0.0038,0.0027,-0.0027,-0.0052,-0.0107,-0.0167,-0.0207,-0.023,-0.0224,-0.0285,-0.0264,-0.0262,-0.0238,-0.0319,-0.0322,-0.0324,-0.029,-0.0289,-0.0289,0,0,0.0211,0.0184,0.0187,0.0156,0.0124,0.0097,0.0091,0.0047,0.0035,-0.0001,-0.005,-0.0107,-0.016,-0.0212,-0.0242,-0.0273,-0.0289,-0.0278,-0.0219,-0.0296,-0.0299,-0.0301,-0.0328,-0.0334,-0.0261,-0.0261,-0.0261,0,0.0234,0.0224,0.0179,0.0171,0.0163,0.0106,0.0111,0.0073,0.0018,0.0012,0.0004,-0.0106,-0.0163,-0.0227,-0.0223,-0.0269,-0.0288,-0.0213,-0.0292,-0.0295,-0.0299,-0.0326,-0.0333,-0.0259,-0.0259,-0.0259,-0.0259,0,0.0245,0.0242,0.0239,0.0216,0.0191,0.0183,0.0133,0.0115,0.01,0.0066,0.001,-0.0079,-0.0116,-0.0168,-0.0192,-0.0247,-0.0244,-0.0292,-0.0285,-0.0297,-0.0327,-0.0334,-0.0255,-0.0256,-0.0257,-0.0257,0,0,0.0318,0.0267,0.0275,0.0281,0.0224,0.0214,0.0192,0.0167,0.0178,0.0101,0.0102,-0.001,-0.003,-0.0067,-0.0132,-0.0208,-0.0254,-0.0228,-0.0234,-0.0234,-0.0374,-0.0326,-0.033,-0.0304,-0.0306,-0.0307,-0.0377,0,0.0366,0.0379,0.0334,0.0349,0.0356,0.03,0.03,0.0259,0.0227,0.0203,0.0091,0.0076,-0.0001,0.0018,-0.0084,-0.0228,-0.0273,-0.0227,-0.0378,-0.0382,-0.0322,-0.0338,-0.0312,-0.0383,-0.0385,-0.0386,-0.0387,0,0.0411,0.0421,0.046,0.0452,0.0455,0.048,0.049,0.0491,0.042,0.0393,0.0329,0.0244,0.0134,0.0083,-0.0147,-0.0103,-0.0195,-0.0319,-0.0326,-0.0301,-0.0349,-0.0376,-0.0402,-0.0401,-0.04,-0.0399,-0.0398,0,0.05,0.051,0.0562,0.0553,0.0534,0.0595,0.0635,0.0597,0.0587,0.0576,0.054,0.0389,0.0343,0.0154,-0.0083,-0.0085,-0.0354,-0.0397,-0.0444,-0.0441,-0.0488,-0.0485,-0.0517,-0.0517,-0.0517,-0.0517,-0.0516,0,0.0558,0.0596,0.0646,0.0664,0.0767,0.0761,0.0868,0.0856,0.0832,0.078,0.071,0.059,0.0363,0.0157,-0.0047,-0.0272,-0.0312,-0.0418,-0.046,-0.046,-0.0453,-0.0492,-0.0488,-0.0519,-0.0519,-0.0518,-0.0518,0,0.0612,0.0635,0.0687,0.0753,0.0807,0.0915,0.1009,0.1028,0.1056,0.0982,0.0987,0.0757,0.0526,0.0264,-0.0051,-0.019,-0.043,-0.0483,-0.0426,-0.0467,-0.0462,-0.0455,-0.052,-0.0519,-0.0518,-0.0517,-0.0517,0,0.0606,0.0663,0.0764,0.0818,0.0877,0.1046,0.1106,0.1157,0.1123,0.1011,0.0907,0.0752,0.0571,0.0173,-0.008,-0.0382,-0.043,-0.0485,-0.0496,-0.043,-0.0465,-0.0459,-0.0453,-0.0515,-0.0515,-0.0515,-0.0515,0,0.0594,0.0666,0.0715,0.0832,0.0938,0.1021,0.1121,0.111,0.1097,0.1085,0.0858,0.0686,0.0436,0.0149,-0.0025,-0.0288,-0.0428,-0.0477,-0.048,-0.0491,-0.0426,-0.046,-0.0455,-0.0512,-0.0512,-0.0512,-0.0512,0,0.0589,0.0627,0.0695,0.0818,0.0912,0.0945,0.1035,0.0998,0.0998,0.0882,0.0784,0.0564,0.0448,0.0193,-0.0055,-0.0208,-0.0252,-0.0291,-0.0305,-0.031,-0.0232,-0.0117,-0.0131,0,0,0,0,0,0.0553,0.0581,0.065,0.0756,0.0841,0.0889,0.0948,0.1003,0.1005,0.0849,0.0838,0.06,0.0326,0.0174,0.003,-0.0056,-0.0291,-0.0229,-0.0345,-0.0495,-0.0498,-0.0438,0,0,0,0,0,0,0.0514,0.056,0.0608,0.0663,0.0731,0.0791,0.0836,0.0846,0.0776,0.0767,0.0611,0.0586,0.0301,0.0408,0.0028,-0.0021,-0.0107,-0.0348,-0.035,-0.0493,-0.0496,-0.0499,-0.0438,0,0,0,0,0]}]]